Location: Dampvalley
(47.9094°N, 6.1967°E)
Time: 19:29:41
(UTC+00:00)

ADEOS II - Pass Details

Date: 05 March 2021
Orbit: 799 x 801 km, 98.6° (Epoch: 21 April)

Event Time Altitude Azimuth Distance (km) Brightness Sun altitude
Rises 02:19:38 0° 11° (N) 3,324 5.9 -37.0°
Reaches altitude 10° 02:22:00 10° 9° (N) 2,389 5.0 -36.7°
Enters shadow 02:23:43 21° 4° (N) 1,733 4.1 -36.4°
